{"data":{"norad_id":67765,"intl_designator":"2026-030B","name":"KUIPER-00160","alt_names":[],"object_type":"PAYLOAD","status":"ACTIVE","operator":null,"country":"US","launch_date":"2026-02-12","launch_site_code":"FRGUI","launch_vehicle":null,"mission":null,"orbit_class":"UNKNOWN","rcs_meters":null,"size_class":null,"mass_kg":null,"dimensions":null,"purposes":[],"wikipedia_slug":null,"has_3d_model":false,"image_url":null,"decayed_at":null,"tle_current":{"epoch":"2026-09-20T22:00:03.000096Z","epoch_age_seconds":53172,"freshness":"FRESH","line1":"1 67765U 26030B   26263.91670139 -.00035788  00000+0 -47033-2 0  9998","line2":"2 67765  51.8987   2.3523 0001351 155.6718 279.0411 14.79817429  5044","mean_motion":14.79817429,"eccentricity":0.0001351,"inclination_deg":51.8987,"raan_deg":2.3523,"arg_perigee_deg":155.6718,"mean_anomaly_deg":279.0411,"bstar":-0.0047033,"rev_number":504,"period_min":97.309301254351,"perigee_km":628.95369606315,"apogee_km":630.84726779076,"semimajor_km":7008.037481927,"source":"CELESTRAK","updated_at":"2026-09-21T09:00:16.827111Z"}}}